Knoxville Regional Airport (TYS)

 

Airport Diagram
Current Weather/Forecast (VFR Conditions)
METAR KTYS 251453Z 25006KT 10SM FEW023 SCT034 OVC045 04/00 A3008 RMK AO2 SLP189 T00390000 53021 $
TAF KTYS 251135Z 2512/2612 24008KT P6SM SCT030 BKN045 TEMPO 2512/2515 BKN025 FM251500 25008KT P6SM BKN021 FM252100 25008KT P6SM BKN035 FM260300 24005KT P6SM BKN025

All Charts
General
Chart Name Download
AIRPORT DIAGRAM
TAKEOFF MINIMUMS
ALTERNATE MINIMUMS
RADAR MINIMUMS
HOT SPOT

Departures
Chart Name Download
KNOXVILLE SIX

Approaches
Chart Name Download
HI-ILS OR LOC RWY 05L
HI-ILS OR LOC RWY 23L
HI-ILS OR LOC RWY 23R
ILS OR LOC RWY 05L
ILS OR LOC RWY 23L
ILS OR LOC RWY 23R
ILS RWY 23R (SA CAT I)
ILS RWY 23R (CAT II)
RNAV (GPS) RWY 05L
RNAV (GPS) RWY 05R
RNAV (GPS) RWY 23L
RNAV (GPS) RWY 23R
HI-VOR/DME OR TACAN RWY 05L
HI-VOR/DME OR TACAN RWY 23R
VOR RWY 23L
VOR RWY 23R


Inbound Traffic (Arrivals)

No inbound traffic.


Outbound Traffic (Departures)

No outbound traffic.